C/2017 M4 ( ATLAS )

Japanese version
Home page
Updated on November 23, 2017

---------------------------------------------------------------------

* Profile

Discovery Date June 21, 2017
Magnitude 18.3 mag
Discoverer Asteroid Terrestrial-impact Last Alert System (ATLAS) Team

* Pictures

* Orbital Elements

Epoch 2019 Feb. 6.0 TT = JDT 2458520.5
T 2019 Jan. 18.18592 TT                                 MPCW
q   3.2515903            (2000.0)            P               Q
z  -0.0007167      Peri.  167.62494     -0.34656017     -0.32819940
 +/-0.0000042      Node    65.86773     -0.92162431     +0.29356100
e   1.0023303      Incl.  105.65771     -0.17465589     -0.89783467
From 652 observations 2017 June 16-Nov. 2, mean residual 0".4.

* Finding Charts

* Magnitudes Graph

        m1 = 6.0 + 5 log d + 10.0 log r

---------------------------------------------------------------------

The orbital elements are published on M.P.E.C. 2017-V13.
The charts are made with StellaNavigator Ver.10 (AstroArts).
The magnitudes graphs are made with Comet for Windows.

---------------------------------------------------------------------

Copyright(C) Seiichi Yoshida (comet@aerith.net). All rights reserved.